contact:dominique.lefevre@mio.osupytheas.fr, maurice.libes@osupytheas.fr, didier.mallarino@osupytheas.fr
Project:EMSO http://www.emso-fr.org/EMSO-France
Depth: 2436.0 m
Title:EMSO Ligure Ouest : Data MII capteur MICROCAT
DateTime_Computer,Latitude,Longitude,Temperature,Conductivity,Pressure,DateTime_Instrument
DateTime_Computer,Latitude,Longitude,degC,S m-1,dbar,DateTime_Instrument
2019-12-27T00:01:51Z,42.805,6.029,13.2961,4.59958,2469.984,2019-12-27T02:02:22Z
2019-12-27T00:04:54Z,42.805,6.029,13.2958,4.59960,2469.993,2019-12-27T02:05:25Z
2019-12-27T00:07:57Z,42.805,6.029,13.2958,4.59960,2469.97,2019-12-27T02:08:28Z
2019-12-27T00:11:00Z,42.805,6.029,13.2961,4.59958,2469.947,2019-12-27T02:11:31Z
2019-12-27T00:14:04Z,42.805,6.029,13.2961,4.59958,2469.97,2019-12-27T02:14:34Z
2019-12-27T00:17:07Z,42.805,6.029,13.2957,4.59958,2469.947,2019-12-27T02:17:38Z
2019-12-27T00:20:10Z,42.805,6.029,13.2962,4.59958,2469.97,2019-12-27T02:20:41Z
2019-12-27T00:23:13Z,42.805,6.029,13.2960,4.59958,2469.97,2019-12-27T02:23:44Z
2019-12-27T00:26:16Z,42.805,6.029,13.2954,4.59958,2469.984,2019-12-27T02:26:47Z
2019-12-27T00:29:20Z,42.805,6.029,13.2959,4.59960,2469.984,2019-12-27T02:29:51Z
2019-12-27T00:32:23Z,42.805,6.029,13.2962,4.59959,2469.947,2019-12-27T02:32:54Z
2019-12-27T00:35:26Z,42.805,6.029,13.2959,4.59958,2469.947,2019-12-27T02:35:57Z
2019-12-27T00:38:29Z,42.805,6.029,13.2962,4.59958,2469.923,2019-12-27T02:39:00Z
2019-12-27T00:41:33Z,42.805,6.029,13.2958,4.59960,2469.984,2019-12-27T02:42:04Z
2019-12-27T00:44:36Z,42.805,6.029,13.2958,4.59959,2469.937,2019-12-27T02:45:07Z
2019-12-27T00:47:39Z,42.805,6.029,13.2959,4.59958,2469.97,2019-12-27T02:48:10Z
2019-12-27T00:50:43Z,42.805,6.029,13.2959,4.59958,2469.984,2019-12-27T02:51:14Z
2019-12-27T00:53:46Z,42.805,6.029,13.2957,4.59958,2469.984,2019-12-27T02:54:17Z
2019-12-27T00:56:49Z,42.805,6.029,13.2961,4.59961,2469.923,2019-12-27T02:57:20Z
2019-12-27T00:59:52Z,42.805,6.029,13.2961,4.59960,2469.96,2019-12-27T03:00:23Z
2019-12-27T01:02:55Z,42.805,6.029,13.2959,4.59960,2469.97,2019-12-27T03:03:26Z
2019-12-27T01:05:59Z,42.805,6.029,13.2963,4.59960,2469.947,2019-12-27T03:06:30Z
2019-12-27T01:09:02Z,42.805,6.029,13.2961,4.59958,2469.97,2019-12-27T03:09:33Z
2019-12-27T01:12:05Z,42.805,6.029,13.2961,4.59960,2469.96,2019-12-27T03:12:36Z
2019-12-27T01:15:08Z,42.805,6.029,13.2960,4.59961,2469.923,2019-12-27T03:15:39Z
2019-12-27T01:18:12Z,42.805,6.029,13.2964,4.59958,2469.909,2019-12-27T03:18:43Z
2019-12-27T01:21:15Z,42.805,6.029,13.2961,4.59960,2469.923,2019-12-27T03:21:46Z
2019-12-27T01:24:18Z,42.805,6.029,13.2961,4.59959,2469.96,2019-12-27T03:24:49Z
2019-12-27T01:27:21Z,42.805,6.029,13.2959,4.59961,2469.984,2019-12-27T03:27:52Z
2019-12-27T01:30:24Z,42.805,6.029,13.2962,4.59960,2469.97,2019-12-27T03:30:55Z
2019-12-27T01:33:28Z,42.805,6.029,13.2965,4.59960,2469.97,2019-12-27T03:33:59Z
2019-12-27T01:36:31Z,42.805,6.029,13.2959,4.59959,2469.937,2019-12-27T03:37:02Z
2019-12-27T01:39:34Z,42.805,6.029,13.2964,4.59960,2469.937,2019-12-27T03:40:05Z
2019-12-27T01:42:37Z,42.805,6.029,13.2961,4.59961,2469.937,2019-12-27T03:43:08Z
2019-12-27T01:45:40Z,42.805,6.029,13.2964,4.59960,2469.96,2019-12-27T03:46:11Z
2019-12-27T01:48:44Z,42.805,6.029,13.2958,4.59960,2469.923,2019-12-27T03:49:15Z
2019-12-27T01:51:47Z,42.805,6.029,13.2963,4.59958,2469.96,2019-12-27T03:52:18Z
2019-12-27T01:54:50Z,42.805,6.029,13.2961,4.59961,2469.923,2019-12-27T03:55:21Z
2019-12-27T01:57:53Z,42.805,6.029,13.2962,4.59961,2469.947,2019-12-27T03:58:24Z
2019-12-27T02:00:57Z,42.805,6.029,13.2959,4.59960,2469.947,2019-12-27T04:01:28Z
2019-12-27T02:04:00Z,42.805,6.029,13.2962,4.59960,2469.984,2019-12-27T04:04:31Z
2019-12-27T02:07:03Z,42.805,6.029,13.2958,4.59959,2469.984,2019-12-27T04:07:34Z
2019-12-27T02:10:06Z,42.805,6.029,13.2961,4.59960,2469.947,2019-12-27T04:10:37Z
2019-12-27T02:13:09Z,42.805,6.029,13.2962,4.59959,2469.947,2019-12-27T04:13:40Z
2019-12-27T02:16:13Z,42.805,6.029,13.2961,4.59958,2469.96,2019-12-27T04:16:44Z
2019-12-27T02:19:16Z,42.805,6.029,13.2962,4.59961,2469.947,2019-12-27T04:19:47Z
2019-12-27T02:22:19Z,42.805,6.029,13.2963,4.59959,2469.937,2019-12-27T04:22:50Z
2019-12-27T02:25:22Z,42.805,6.029,13.2962,4.59959,2469.937,2019-12-27T04:25:53Z
2019-12-27T02:28:25Z,42.805,6.029,13.2961,4.59961,2469.923,2019-12-27T04:28:56Z
2019-12-27T02:31:29Z,42.805,6.029,13.2964,4.59961,2469.97,2019-12-27T04:32:00Z
2019-12-27T02:34:32Z,42.805,6.029,13.2966,4.59962,2469.909,2019-12-27T04:35:03Z
2019-12-27T02:37:35Z,42.805,6.029,13.2966,4.59961,2469.947,2019-12-27T04:38:06Z
2019-12-27T02:40:38Z,42.805,6.029,13.2961,4.59961,2469.9,2019-12-27T04:41:09Z
2019-12-27T02:43:41Z,42.805,6.029,13.2963,4.59961,2469.96,2019-12-27T04:44:12Z
2019-12-27T02:46:45Z,42.805,6.029,13.2967,4.59961,2469.947,2019-12-27T04:47:16Z
2019-12-27T02:49:48Z,42.805,6.029,13.2964,4.59961,2469.937,2019-12-27T04:50:19Z
2019-12-27T02:52:51Z,42.805,6.029,13.2964,4.59961,2469.9,2019-12-27T04:53:22Z
2019-12-27T02:55:54Z,42.805,6.029,13.2964,4.59964,2469.947,2019-12-27T04:56:25Z
2019-12-27T02:58:58Z,42.805,6.029,13.2961,4.59960,2469.923,2019-12-27T04:59:29Z
2019-12-27T03:02:01Z,42.805,6.029,13.2961,4.59962,2469.947,2019-12-27T05:02:32Z
2019-12-27T03:05:04Z,42.805,6.029,13.2961,4.59962,2469.96,2019-12-27T05:05:35Z
2019-12-27T03:08:07Z,42.805,6.029,13.2965,4.59963,2469.937,2019-12-27T05:08:38Z
2019-12-27T03:11:10Z,42.805,6.029,13.2960,4.59961,2470.007,2019-12-27T05:11:41Z
2019-12-27T03:14:14Z,42.805,6.029,13.2967,4.59961,2469.97,2019-12-27T05:14:45Z
2019-12-27T03:17:17Z,42.805,6.029,13.2967,4.59962,2469.97,2019-12-27T05:17:48Z
2019-12-27T03:20:20Z,42.805,6.029,13.2968,4.59961,2469.947,2019-12-27T05:20:51Z
2019-12-27T03:23:23Z,42.805,6.029,13.2964,4.59961,2469.97,2019-12-27T05:23:54Z
2019-12-27T03:26:27Z,42.805,6.029,13.2964,4.59964,2469.937,2019-12-27T05:26:58Z
2019-12-27T03:29:30Z,42.805,6.029,13.2964,4.59961,2469.923,2019-12-27T05:30:01Z
2019-12-27T03:32:33Z,42.805,6.029,13.2968,4.59962,2469.97,2019-12-27T05:33:04Z
2019-12-27T03:35:36Z,42.805,6.029,13.2964,4.59962,2469.947,2019-12-27T05:36:07Z
2019-12-27T03:38:39Z,42.805,6.029,13.2966,4.59962,2469.947,2019-12-27T05:39:10Z
2019-12-27T03:41:43Z,42.805,6.029,13.2967,4.59964,2469.96,2019-12-27T05:42:14Z
2019-12-27T03:44:46Z,42.805,6.029,13.2964,4.59962,2469.993,2019-12-27T05:45:17Z
2019-12-27T03:47:49Z,42.805,6.029,13.2964,4.59961,2469.993,2019-12-27T05:48:20Z
2019-12-27T03:50:52Z,42.805,6.029,13.2961,4.59964,2469.97,2019-12-27T05:51:23Z
2019-12-27T03:53:55Z,42.805,6.029,13.2963,4.59961,2469.993,2019-12-27T05:54:26Z
2019-12-27T03:56:59Z,42.805,6.029,13.2968,4.59961,2469.96,2019-12-27T05:57:30Z
2019-12-27T04:00:02Z,42.805,6.029,13.2965,4.59961,2469.993,2019-12-27T06:00:33Z
2019-12-27T04:03:05Z,42.805,6.029,13.2961,4.59962,2469.97,2019-12-27T06:03:36Z
2019-12-27T04:06:09Z,42.805,6.029,13.2963,4.59961,2470.017,2019-12-27T06:06:40Z
2019-12-27T04:09:12Z,42.805,6.029,13.2967,4.59961,2470.007,2019-12-27T06:09:43Z
2019-12-27T04:12:15Z,42.805,6.029,13.2964,4.59963,2470.017,2019-12-27T06:12:46Z
2019-12-27T04:15:18Z,42.805,6.029,13.2964,4.59961,2470.03,2019-12-27T06:15:49Z
2019-12-27T04:18:22Z,42.805,6.029,13.2964,4.59963,2470.007,2019-12-27T06:18:53Z
2019-12-27T04:21:25Z,42.805,6.029,13.2965,4.59962,2469.993,2019-12-27T06:21:56Z
2019-12-27T04:24:28Z,42.805,6.029,13.2963,4.59961,2469.993,2019-12-27T06:24:59Z
2019-12-27T04:27:31Z,42.805,6.029,13.2965,4.59963,2470.017,2019-12-27T06:28:02Z
2019-12-27T04:30:34Z,42.805,6.029,13.2963,4.59964,2470.03,2019-12-27T06:31:05Z
2019-12-27T04:33:37Z,42.805,6.029,13.2966,4.59962,2470.053,2019-12-27T06:34:08Z
2019-12-27T04:36:41Z,42.805,6.029,13.2967,4.59962,2470.04,2019-12-27T06:37:12Z
2019-12-27T04:39:44Z,42.805,6.029,13.2964,4.59962,2470.017,2019-12-27T06:40:15Z
2019-12-27T04:42:47Z,42.805,6.029,13.2964,4.59963,2470.04,2019-12-27T06:43:18Z
2019-12-27T04:45:50Z,42.805,6.029,13.2964,4.59963,2470.053,2019-12-27T06:46:21Z
2019-12-27T04:48:54Z,42.805,6.029,13.2967,4.59962,2470.04,2019-12-27T06:49:25Z
2019-12-27T04:51:57Z,42.805,6.029,13.2964,4.59962,2470.053,2019-12-27T06:52:28Z
2019-12-27T04:55:00Z,42.805,6.029,13.2961,4.59962,2470.04,2019-12-27T06:55:31Z
2019-12-27T04:58:03Z,42.805,6.029,13.2963,4.59962,2470.063,2019-12-27T06:58:34Z
2019-12-27T05:01:07Z,42.805,6.029,13.2963,4.59963,2470.04,2019-12-27T07:01:38Z
2019-12-27T05:04:10Z,42.805,6.029,13.2965,4.59961,2470.053,2019-12-27T07:04:41Z
2019-12-27T05:07:13Z,42.805,6.029,13.2967,4.59961,2470.063,2019-12-27T07:07:44Z
2019-12-27T05:10:17Z,42.805,6.029,13.2964,4.59961,2470.087,2019-12-27T07:10:48Z
2019-12-27T05:13:20Z,42.805,6.029,13.2964,4.59962,2470.063,2019-12-27T07:13:51Z
2019-12-27T05:16:23Z,42.805,6.029,13.2962,4.59963,2470.11,2019-12-27T07:16:54Z
2019-12-27T05:19:26Z,42.805,6.029,13.2964,4.59963,2470.063,2019-12-27T07:19:57Z
2019-12-27T05:22:30Z,42.805,6.029,13.2964,4.59962,2470.1,2019-12-27T07:23:00Z
2019-12-27T05:25:33Z,42.805,6.029,13.2965,4.59963,2470.077,2019-12-27T07:26:04Z
2019-12-27T05:28:36Z,42.805,6.029,13.2962,4.59962,2470.053,2019-12-27T07:29:07Z
2019-12-27T05:31:39Z,42.805,6.029,13.2958,4.59961,2470.087,2019-12-27T07:32:10Z
2019-12-27T05:34:42Z,42.805,6.029,13.2964,4.59963,2470.063,2019-12-27T07:35:13Z
2019-12-27T05:37:46Z,42.805,6.029,13.2962,4.59964,2470.11,2019-12-27T07:38:17Z
2019-12-27T05:40:49Z,42.805,6.029,13.2960,4.59962,2470.11,2019-12-27T07:41:20Z
2019-12-27T05:43:52Z,42.805,6.029,13.2966,4.59963,2470.087,2019-12-27T07:44:23Z
2019-12-27T05:46:55Z,42.805,6.029,13.2964,4.59963,2470.11,2019-12-27T07:47:26Z
2019-12-27T05:49:58Z,42.805,6.029,13.2965,4.59962,2470.1,2019-12-27T07:50:29Z
2019-12-27T05:53:02Z,42.805,6.029,13.2964,4.59961,2470.11,2019-12-27T07:53:33Z
2019-12-27T05:56:05Z,42.805,6.029,13.2961,4.59962,2470.11,2019-12-27T07:56:36Z
2019-12-27T05:59:08Z,42.805,6.029,13.2967,4.59961,2470.171,2019-12-27T07:59:39Z
2019-12-27T06:02:11Z,42.805,6.029,13.2964,4.59962,2470.11,2019-12-27T08:02:42Z
2019-12-27T06:05:14Z,42.805,6.029,13.2968,4.59963,2470.11,2019-12-27T08:05:45Z
2019-12-27T06:08:18Z,42.805,6.029,13.2967,4.59962,2470.124,2019-12-27T08:08:49Z
2019-12-27T06:11:21Z,42.805,6.029,13.2963,4.59964,2470.133,2019-12-27T08:11:52Z
2019-12-27T06:14:24Z,42.805,6.029,13.2964,4.59963,2470.156,2019-12-27T08:14:55Z
2019-12-27T06:17:27Z,42.805,6.029,13.2963,4.59961,2470.156,2019-12-27T08:17:58Z
2019-12-27T06:20:30Z,42.805,6.029,13.2964,4.59964,2470.171,2019-12-27T08:21:01Z
2019-12-27T06:23:34Z,42.805,6.029,13.2964,4.59963,2470.133,2019-12-27T08:24:05Z
2019-12-27T06:26:37Z,42.805,6.029,13.2970,4.59963,2470.147,2019-12-27T08:27:08Z
2019-12-27T06:29:40Z,42.805,6.029,13.2967,4.59961,2470.133,2019-12-27T08:30:11Z
2019-12-27T06:32:43Z,42.805,6.029,13.2961,4.59964,2470.156,2019-12-27T08:33:14Z
2019-12-27T06:35:47Z,42.805,6.029,13.2964,4.59963,2470.133,2019-12-27T08:36:17Z
2019-12-27T06:38:50Z,42.805,6.029,13.2963,4.59964,2470.18,2019-12-27T08:39:21Z
2019-12-27T06:41:53Z,42.805,6.029,13.2964,4.59969,2470.147,2019-12-27T08:42:24Z
2019-12-27T06:44:56Z,42.805,6.029,13.2965,4.59963,2470.156,2019-12-27T08:45:27Z
2019-12-27T06:47:59Z,42.805,6.029,13.2961,4.59963,2470.18,2019-12-27T08:48:30Z
2019-12-27T06:51:03Z,42.805,6.029,13.2966,4.59963,2470.18,2019-12-27T08:51:34Z
2019-12-27T06:54:06Z,42.805,6.029,13.2967,4.59964,2470.147,2019-12-27T08:54:37Z
2019-12-27T06:57:09Z,42.805,6.029,13.2962,4.59963,2470.18,2019-12-27T08:57:40Z
2019-12-27T07:00:12Z,42.805,6.029,13.2967,4.59963,2470.18,2019-12-27T09:00:43Z
2019-12-27T07:03:15Z,42.805,6.029,13.2966,4.59963,2470.156,2019-12-27T09:03:46Z
2019-12-27T07:06:19Z,42.805,6.029,13.2962,4.59966,2470.203,2019-12-27T09:06:50Z
2019-12-27T07:09:22Z,42.805,6.029,13.2964,4.59966,2470.194,2019-12-27T09:09:53Z
2019-12-27T07:12:25Z,42.805,6.029,13.2964,4.59964,2470.203,2019-12-27T09:12:56Z
2019-12-27T07:15:28Z,42.805,6.029,13.2964,4.59964,2470.227,2019-12-27T09:15:59Z
2019-12-27T07:18:31Z,42.805,6.029,13.2965,4.59968,2470.194,2019-12-27T09:19:02Z
2019-12-27T07:21:35Z,42.805,6.029,13.2968,4.59963,2470.217,2019-12-27T09:22:06Z
2019-12-27T07:24:38Z,42.805,6.029,13.2964,4.59966,2470.194,2019-12-27T09:25:09Z
2019-12-27T07:27:41Z,42.805,6.029,13.2967,4.59963,2470.156,2019-12-27T09:28:12Z
2019-12-27T07:30:44Z,42.805,6.029,13.2963,4.59964,2470.18,2019-12-27T09:31:15Z
2019-12-27T07:33:48Z,42.805,6.029,13.2967,4.59965,2470.18,2019-12-27T09:34:19Z
2019-12-27T07:36:51Z,42.805,6.029,13.2964,4.59966,2470.217,2019-12-27T09:37:22Z
2019-12-27T07:39:54Z,42.805,6.029,13.2961,4.59980,2470.147,2019-12-27T09:40:25Z
2019-12-27T07:42:57Z,42.805,6.029,13.2963,4.59966,2470.24,2019-12-27T09:43:28Z
2019-12-27T07:46:00Z,42.805,6.029,13.2967,4.59965,2470.18,2019-12-27T09:46:31Z
2019-12-27T07:49:04Z,42.805,6.029,13.2967,4.59964,2470.203,2019-12-27T09:49:35Z
2019-12-27T07:52:07Z,42.805,6.029,13.2964,4.59964,2470.217,2019-12-27T09:52:38Z
2019-12-27T07:55:10Z,42.805,6.029,13.2962,4.59965,2470.203,2019-12-27T09:55:41Z
2019-12-27T07:58:13Z,42.805,6.029,13.2964,4.59964,2470.24,2019-12-27T09:58:44Z
2019-12-27T08:01:16Z,42.805,6.029,13.2968,4.59967,2470.24,2019-12-27T10:01:47Z
2019-12-27T08:04:20Z,42.805,6.029,13.2967,4.59970,2470.203,2019-12-27T10:04:51Z
2019-12-27T08:07:23Z,42.805,6.029,13.2966,4.59964,2470.203,2019-12-27T10:07:54Z
2019-12-27T08:10:26Z,42.805,6.029,13.2964,4.59965,2470.217,2019-12-27T10:10:57Z
2019-12-27T08:13:29Z,42.805,6.029,13.2969,4.59968,2470.194,2019-12-27T10:14:00Z
2019-12-27T08:16:33Z,42.805,6.029,13.2964,4.59964,2470.24,2019-12-27T10:17:04Z
2019-12-27T08:19:36Z,42.805,6.029,13.2964,4.59964,2470.203,2019-12-27T10:20:07Z
2019-12-27T08:22:39Z,42.805,6.029,13.2964,4.59969,2470.217,2019-12-27T10:23:10Z
2019-12-27T08:25:42Z,42.805,6.029,13.2967,4.59964,2470.203,2019-12-27T10:26:13Z
2019-12-27T08:28:46Z,42.805,6.029,13.2967,4.59966,2470.189,2019-12-27T10:29:17Z
2019-12-27T08:31:49Z,42.805,6.029,13.2966,4.59966,2470.217,2019-12-27T10:32:20Z
2019-12-27T08:34:52Z,42.805,6.029,13.2965,4.59966,2470.18,2019-12-27T10:35:23Z
2019-12-27T08:37:55Z,42.805,6.029,13.2967,4.59966,2470.203,2019-12-27T10:38:26Z
2019-12-27T08:40:59Z,42.805,6.029,13.2964,4.59968,2470.194,2019-12-27T10:41:30Z
2019-12-27T08:44:02Z,42.805,6.029,13.2967,4.59966,2470.227,2019-12-27T10:44:33Z
2019-12-27T08:47:05Z,42.805,6.029,13.2968,4.59968,2470.217,2019-12-27T10:47:36Z
2019-12-27T08:50:08Z,42.805,6.029,13.2968,4.59966,2470.18,2019-12-27T10:50:39Z
2019-12-27T08:53:12Z,42.805,6.029,13.2965,4.59968,2470.18,2019-12-27T10:53:43Z
2019-12-27T08:56:15Z,42.805,6.029,13.2965,4.59972,2470.227,2019-12-27T10:56:46Z
2019-12-27T08:59:18Z,42.805,6.029,13.2965,4.59970,2470.18,2019-12-27T10:59:49Z
2019-12-27T09:02:21Z,42.805,6.029,13.2962,4.59970,2470.203,2019-12-27T11:02:52Z
2019-12-27T09:05:24Z,42.805,6.029,13.2965,4.59968,2470.171,2019-12-27T11:05:55Z
2019-12-27T09:08:28Z,42.805,6.029,13.2963,4.59969,2470.194,2019-12-27T11:08:59Z
2019-12-27T09:11:31Z,42.805,6.029,13.2961,4.59968,2470.18,2019-12-27T11:12:02Z
2019-12-27T09:14:34Z,42.805,6.029,13.2959,4.59971,2470.18,2019-12-27T11:15:05Z
2019-12-27T09:17:37Z,42.805,6.029,13.2965,4.59975,2470.203,2019-12-27T11:18:08Z
2019-12-27T09:20:40Z,42.805,6.029,13.2966,4.59981,2470.171,2019-12-27T11:21:11Z
2019-12-27T09:23:44Z,42.805,6.029,13.2963,4.59982,2470.217,2019-12-27T11:24:15Z
2019-12-27T09:26:47Z,42.805,6.029,13.2965,4.59976,2470.203,2019-12-27T11:27:18Z
2019-12-27T09:29:50Z,42.805,6.029,13.2965,4.59972,2470.18,2019-12-27T11:30:21Z
2019-12-27T09:32:53Z,42.805,6.029,13.2964,4.59969,2470.194,2019-12-27T11:33:24Z
2019-12-27T09:35:57Z,42.805,6.029,13.2964,4.59968,2470.194,2019-12-27T11:36:28Z
2019-12-27T09:39:00Z,42.805,6.029,13.2963,4.59968,2470.203,2019-12-27T11:39:31Z
2019-12-27T09:42:03Z,42.805,6.029,13.2966,4.59969,2470.203,2019-12-27T11:42:34Z
2019-12-27T09:45:06Z,42.805,6.029,13.2964,4.59968,2470.156,2019-12-27T11:45:37Z
2019-12-27T09:48:09Z,42.805,6.029,13.2964,4.59970,2470.156,2019-12-27T11:48:40Z
2019-12-27T09:51:13Z,42.805,6.029,13.2965,4.59968,2470.18,2019-12-27T11:51:44Z
2019-12-27T09:54:16Z,42.805,6.029,13.2965,4.59967,2470.18,2019-12-27T11:54:47Z
2019-12-27T09:57:19Z,42.805,6.029,13.2964,4.59966,2470.194,2019-12-27T11:57:50Z
2019-12-27T10:00:22Z,42.805,6.029,13.2965,4.59966,2470.156,2019-12-27T12:00:53Z
2019-12-27T10:03:26Z,42.805,6.029,13.2965,4.59966,2470.194,2019-12-27T12:03:57Z
2019-12-27T10:06:29Z,42.805,6.029,13.2963,4.59966,2470.18,2019-12-27T12:07:00Z
2019-12-27T10:09:32Z,42.805,6.029,13.2961,4.59971,2470.156,2019-12-27T12:10:03Z
2019-12-27T10:12:35Z,42.805,6.029,13.2964,4.59968,2470.156,2019-12-27T12:13:06Z
2019-12-27T10:15:39Z,42.805,6.029,13.2964,4.59971,2470.171,2019-12-27T12:16:10Z
2019-12-27T10:18:42Z,42.805,6.029,13.2966,4.59970,2470.119,2019-12-27T12:19:13Z
2019-12-27T10:21:45Z,42.805,6.029,13.2965,4.59971,2470.156,2019-12-27T12:22:16Z
2019-12-27T10:24:48Z,42.805,6.029,13.2960,4.59968,2470.11,2019-12-27T12:25:19Z
2019-12-27T10:27:51Z,42.805,6.029,13.2967,4.59968,2470.171,2019-12-27T12:28:22Z
2019-12-27T10:30:55Z,42.805,6.029,13.2965,4.59970,2470.171,2019-12-27T12:31:26Z
2019-12-27T10:33:58Z,42.805,6.029,13.2964,4.59966,2470.156,2019-12-27T12:34:29Z
2019-12-27T10:37:01Z,42.805,6.029,13.2966,4.59968,2470.133,2019-12-27T12:37:32Z
2019-12-27T10:40:04Z,42.805,6.029,13.2962,4.59966,2470.133,2019-12-27T12:40:35Z
2019-12-27T10:43:08Z,42.805,6.029,13.2964,4.59967,2470.133,2019-12-27T12:43:39Z
2019-12-27T10:46:11Z,42.805,6.029,13.2963,4.59966,2470.171,2019-12-27T12:46:42Z
2019-12-27T10:49:14Z,42.805,6.029,13.2961,4.59966,2470.133,2019-12-27T12:49:45Z
2019-12-27T10:52:17Z,42.805,6.029,13.2964,4.59966,2470.147,2019-12-27T12:52:48Z
2019-12-27T10:55:21Z,42.805,6.029,13.2965,4.59966,2470.171,2019-12-27T12:55:52Z
2019-12-27T10:58:24Z,42.805,6.029,13.2963,4.59966,2470.124,2019-12-27T12:58:55Z
2019-12-27T11:01:27Z,42.805,6.029,13.2960,4.59968,2470.087,2019-12-27T13:01:58Z
2019-12-27T11:04:30Z,42.805,6.029,13.2964,4.59966,2470.171,2019-12-27T13:05:01Z
2019-12-27T11:07:33Z,42.805,6.029,13.2968,4.59966,2470.156,2019-12-27T13:08:05Z
2019-12-27T11:10:37Z,42.805,6.029,13.2961,4.59966,2470.147,2019-12-27T13:11:08Z
2019-12-27T11:13:40Z,42.805,6.029,13.2965,4.59966,2470.133,2019-12-27T13:14:11Z
2019-12-27T11:16:43Z,42.805,6.029,13.2964,4.59965,2470.133,2019-12-27T13:17:14Z
2019-12-27T11:19:46Z,42.805,6.029,13.2962,4.59964,2470.1,2019-12-27T13:20:17Z
2019-12-27T11:22:50Z,42.805,6.029,13.2964,4.59966,2470.087,2019-12-27T13:23:21Z
2019-12-27T11:25:53Z,42.805,6.029,13.2969,4.59966,2470.133,2019-12-27T13:26:24Z
2019-12-27T11:28:56Z,42.805,6.029,13.2961,4.59966,2470.1,2019-12-27T13:29:27Z
2019-12-27T11:32:00Z,42.805,6.029,13.2964,4.59965,2470.063,2019-12-27T13:32:31Z
2019-12-27T11:35:03Z,42.805,6.029,13.2967,4.59964,2470.087,2019-12-27T13:35:34Z
2019-12-27T11:38:06Z,42.805,6.029,13.2960,4.59964,2470.1,2019-12-27T13:38:37Z
2019-12-27T11:41:09Z,42.805,6.029,13.2961,4.59966,2470.124,2019-12-27T13:41:40Z
2019-12-27T11:44:13Z,42.805,6.029,13.2966,4.59967,2470.124,2019-12-27T13:44:44Z
2019-12-27T11:47:16Z,42.805,6.029,13.2967,4.59965,2470.133,2019-12-27T13:47:47Z
2019-12-27T11:50:19Z,42.805,6.029,13.2964,4.59965,2470.11,2019-12-27T13:50:50Z
2019-12-27T11:53:22Z,42.805,6.029,13.2964,4.59965,2470.1,2019-12-27T13:53:53Z
2019-12-27T11:56:25Z,42.805,6.029,13.2962,4.59964,2470.1,2019-12-27T13:56:56Z
2019-12-27T11:59:29Z,42.805,6.029,13.2964,4.59966,2470.1,2019-12-27T14:00:00Z
2019-12-27T12:02:32Z,42.805,6.029,13.2964,4.59966,2470.077,2019-12-27T14:03:03Z
2019-12-27T12:05:35Z,42.805,6.029,13.2965,4.59963,2470.1,2019-12-27T14:06:06Z
2019-12-27T12:08:38Z,42.805,6.029,13.2963,4.59963,2470.087,2019-12-27T14:09:09Z
2019-12-27T12:11:42Z,42.805,6.029,13.2963,4.59961,2470.04,2019-12-27T14:12:13Z
2019-12-27T12:14:45Z,42.805,6.029,13.2962,4.59963,2470.087,2019-12-27T14:15:16Z
2019-12-27T12:17:48Z,42.805,6.029,13.2964,4.59962,2470.063,2019-12-27T14:18:19Z
2019-12-27T12:20:51Z,42.805,6.029,13.2964,4.59962,2470.073,2019-12-27T14:21:22Z
2019-12-27T12:23:54Z,42.805,6.029,13.2960,4.59961,2470.077,2019-12-27T14:24:25Z
2019-12-27T12:26:58Z,42.805,6.029,13.2962,4.59962,2470.1,2019-12-27T14:27:29Z
2019-12-27T12:30:01Z,42.805,6.029,13.2961,4.59961,2470.087,2019-12-27T14:30:32Z
2019-12-27T12:33:04Z,42.805,6.029,13.2963,4.59963,2470.063,2019-12-27T14:33:35Z
2019-12-27T12:36:07Z,42.805,6.029,13.2963,4.59961,2470.1,2019-12-27T14:36:38Z
2019-12-27T12:39:10Z,42.805,6.029,13.2958,4.59963,2470.063,2019-12-27T14:39:41Z
2019-12-27T12:42:14Z,42.805,6.029,13.2957,4.59962,2470.053,2019-12-27T14:42:45Z
2019-12-27T12:45:17Z,42.805,6.029,13.2960,4.59963,2470.077,2019-12-27T14:45:48Z
2019-12-27T12:48:20Z,42.805,6.029,13.2961,4.59963,2470.053,2019-12-27T14:48:51Z
2019-12-27T12:51:23Z,42.805,6.029,13.2961,4.59962,2470.03,2019-12-27T14:51:54Z
2019-12-27T12:54:27Z,42.805,6.029,13.2963,4.59962,2470.04,2019-12-27T14:54:58Z
2019-12-27T12:57:30Z,42.805,6.029,13.2961,4.59962,2470.077,2019-12-27T14:58:01Z
2019-12-27T13:00:33Z,42.805,6.029,13.2965,4.59963,2470.063,2019-12-27T15:01:04Z
2019-12-27T13:03:36Z,42.805,6.029,13.2964,4.59962,2470.1,2019-12-27T15:04:07Z
2019-12-27T13:06:40Z,42.805,6.029,13.2965,4.59963,2470.053,2019-12-27T15:07:11Z
2019-12-27T13:09:43Z,42.805,6.029,13.2964,4.59964,2470.026,2019-12-27T15:10:14Z
2019-12-27T13:12:46Z,42.805,6.029,13.2961,4.59961,2470.03,2019-12-27T15:13:17Z
2019-12-27T13:15:49Z,42.805,6.029,13.2962,4.59961,2470.04,2019-12-27T15:16:20Z
2019-12-27T13:18:52Z,42.805,6.029,13.2964,4.59963,2470.04,2019-12-27T15:19:23Z
2019-12-27T13:21:56Z,42.805,6.029,13.2961,4.59961,2470.017,2019-12-27T15:22:27Z
2019-12-27T13:24:59Z,42.805,6.029,13.2964,4.59961,2470.063,2019-12-27T15:25:30Z
2019-12-27T13:28:02Z,42.805,6.029,13.2961,4.59961,2470.017,2019-12-27T15:28:33Z
2019-12-27T13:31:06Z,42.805,6.029,13.2962,4.59962,2470.04,2019-12-27T15:31:37Z
2019-12-27T13:34:09Z,42.805,6.029,13.2961,4.59963,2470.04,2019-12-27T15:34:40Z
2019-12-27T13:37:12Z,42.805,6.029,13.2965,4.59962,2469.993,2019-12-27T15:37:43Z
2019-12-27T13:40:15Z,42.805,6.029,13.2962,4.59963,2470.03,2019-12-27T15:40:46Z
2019-12-27T13:43:18Z,42.805,6.029,13.2964,4.59960,2470.017,2019-12-27T15:43:49Z
2019-12-27T13:46:22Z,42.805,6.029,13.2958,4.59961,2470.017,2019-12-27T15:46:53Z
2019-12-27T13:49:25Z,42.805,6.029,13.2961,4.59961,2470.017,2019-12-27T15:49:56Z
2019-12-27T13:52:28Z,42.805,6.029,13.2961,4.59962,2470.017,2019-12-27T15:52:59Z
2019-12-27T13:55:31Z,42.805,6.029,13.2959,4.59960,2469.993,2019-12-27T15:56:02Z
2019-12-27T13:58:35Z,42.805,6.029,13.2958,4.59961,2470.007,2019-12-27T15:59:06Z
2019-12-27T14:01:38Z,42.805,6.029,13.2960,4.59961,2470.03,2019-12-27T16:02:09Z
2019-12-27T14:04:41Z,42.805,6.029,13.2956,4.59960,2470.007,2019-12-27T16:05:12Z
2019-12-27T14:07:44Z,42.805,6.029,13.2964,4.59960,2470.03,2019-12-27T16:08:15Z
2019-12-27T14:10:47Z,42.805,6.029,13.2959,4.59961,2470.007,2019-12-27T16:11:18Z
2019-12-27T14:13:51Z,42.805,6.029,13.2958,4.59960,2470.007,2019-12-27T16:14:22Z
2019-12-27T14:16:54Z,42.805,6.029,13.2959,4.59958,2469.979,2019-12-27T16:17:25Z
2019-12-27T14:19:57Z,42.805,6.029,13.2961,4.59959,2470.03,2019-12-27T16:20:28Z
2019-12-27T14:23:00Z,42.805,6.029,13.2964,4.59960,2470.04,2019-12-27T16:23:31Z
2019-12-27T14:26:03Z,42.805,6.029,13.2964,4.59960,2470.03,2019-12-27T16:26:34Z
2019-12-27T14:29:07Z,42.805,6.029,13.2960,4.59958,2469.993,2019-12-27T16:29:38Z
2019-12-27T14:32:10Z,42.805,6.029,13.2958,4.59960,2469.984,2019-12-27T16:32:41Z
2019-12-27T14:35:13Z,42.805,6.029,13.2960,4.59961,2470.017,2019-12-27T16:35:44Z
2019-12-27T14:38:16Z,42.805,6.029,13.2959,4.59960,2470.017,2019-12-27T16:38:47Z
2019-12-27T14:41:20Z,42.805,6.029,13.2961,4.59959,2470.03,2019-12-27T16:41:51Z
2019-12-27T14:44:23Z,42.805,6.029,13.2963,4.59961,2469.993,2019-12-27T16:44:54Z
2019-12-27T14:47:26Z,42.805,6.029,13.2963,4.59961,2470.03,2019-12-27T16:47:57Z
2019-12-27T14:50:29Z,42.805,6.029,13.2959,4.59961,2469.993,2019-12-27T16:51:00Z
2019-12-27T14:53:32Z,42.805,6.029,13.2960,4.59960,2470.017,2019-12-27T16:54:03Z
2019-12-27T14:56:36Z,42.805,6.029,13.2961,4.59960,2470.007,2019-12-27T16:57:07Z
2019-12-27T14:59:39Z,42.805,6.029,13.2961,4.59959,2469.984,2019-12-27T17:00:10Z
2019-12-27T15:02:42Z,42.805,6.029,13.2961,4.59958,2470.007,2019-12-27T17:03:13Z